Weather History for Hamilton, OH

Change the Weather History Date:

Thursday, March 22, 2012

  Actual Average (KCVG) Record (KCVG)
Temperature  
Mean Temperature 70 °F 46 °F  
Max Temperature 84 °F 56 °F 85 °F (1907)
Min Temperature 59 °F 36 °F 10 °F (1885)
Degree Days  
Heating Degree Days 0 19  
Month to date heating degree days 507  
Since 1 July heating degree days 4334  
Cooling Degree Days 6 0  
Month to date cooling degree days 0  
Year to date cooling degree days 0  
Growing Degree Days 20 (Base 50)    
Moisture  
Dew Point 54 °F    
Average Humidity 60    
Maximum Humidity 83    
Minimum Humidity 35    
Precipitation  
Precipitation 0.00 in 0.15 in 2.03 in (1904)
Month to date precipitation 2.70  
Year to date precipitation 8.51  
Snow  
Snow 0.00 in 0.10 in 9.80 in (1968)
Month to date snowfall 2.5  
Since 1 July snowfall 21.1  
Snow Depth -    
Sea Level Pressure  
Sea Level Pressure 30.11 in    
Wind  
Wind Speed 1 mph (South)    
Max Wind Speed 8 mph    
Max Gust Speed -    
Visibility 9 miles    
Events      
T = Trace of Precipitation, MM = Missing Value Source: NWS Daily Summary

Daily Weather History Graph

Daily Weather History Graph

Search for Another Location

Airport:

Trip Planner

Search our weather history database for the weather conditions in past years. The results will help you decide how hot, cold, wet, or windy it might be!

Date:

Astronomy

Mar. 22, 2012 Rise Set
Actual Time 7:37 AM EDT 7:52 PM EDT
Civil Twilight 7:10 AM EDT 8:19 PM EDT
Nautical Twilight 6:39 AM EDT 8:50 PM EDT
Astronomical Twilight 6:07 AM EDT 9:22 PM EDT
Moon 7:16 AM EDT (3/22) 8:16 PM EDT (3/22)
Length of Visible Light 13h 08m
Length of Day
12h 15m
New Moon, 0% of the Moon is Illuminated
Mar 22
New Moon
Mar 30
First Quarter
Apr 6
Full
Apr 13
Last Quarter
Apr 21
New

Hourly Weather History & Observations

Time (EDT) Temp. Heat Index Dew Point Humidity Pressure Visibility Wind Dir Wind Speed Gust Speed Precip Events Conditions
12:53 AM 61.0 °F - 53.1 °F 75% 30.10 in 10.0 mi Calm Calm - N/A   Clear
1:53 AM 61.0 °F - 54.0 °F 78% 30.10 in 10.0 mi Calm Calm - N/A   Partly Cloudy
2:53 AM 64.0 °F - 55.9 °F 75% 30.12 in 9.0 mi Calm Calm - N/A   Mostly Cloudy
3:53 AM 61.0 °F - 55.0 °F 81% 30.12 in 8.0 mi Calm Calm - N/A   Mostly Cloudy
4:53 AM 62.1 °F - 55.0 °F 78% 30.12 in 8.0 mi Calm Calm - N/A   Overcast
5:53 AM 62.1 °F - 55.9 °F 80% 30.13 in 9.0 mi Calm Calm - N/A   Overcast
6:53 AM 61.0 °F - 55.0 °F 81% 30.14 in 8.0 mi Calm Calm - N/A   Mostly Cloudy
7:53 AM 59.0 °F - 54.0 °F 83% 30.15 in 6.0 mi Calm Calm - N/A   Haze
8:53 AM 64.9 °F - 57.0 °F 75% 30.16 in 8.0 mi Calm Calm - N/A   Clear
9:53 AM 71.1 °F - 57.0 °F 61% 30.17 in 10.0 mi Calm Calm - N/A   Clear
10:53 AM 75.9 °F - 57.0 °F 52% 30.18 in 10.0 mi Calm Calm - N/A   Clear
11:53 AM 80.1 °F 80.0 °F 54.0 °F 40% 30.17 in 10.0 mi SSW 6.9 mph - N/A   Clear
12:53 PM 81.0 °F 80.5 °F 54.0 °F 39% 30.16 in 10.0 mi South 6.9 mph - N/A   Scattered Clouds
1:53 PM 82.0 °F 81.2 °F 53.1 °F 37% 30.14 in 10.0 mi Calm Calm - N/A   Clear
2:53 PM 82.9 °F 81.9 °F 54.0 °F 37% 30.11 in 10.0 mi SSW 8.1 mph - N/A   Scattered Clouds
3:53 PM 82.9 °F 81.8 °F 53.1 °F 36% 30.08 in 10.0 mi South 4.6 mph - N/A   Scattered Clouds
4:53 PM 82.9 °F 81.8 °F 53.1 °F 36% 30.06 in 10.0 mi Variable 4.6 mph - N/A   Partly Cloudy
5:53 PM 82.0 °F - 52.0 °F 35% 30.05 in 10.0 mi Calm Calm - N/A   Partly Cloudy
6:53 PM 81.0 °F - 51.1 °F 35% 30.06 in 10.0 mi South 4.6 mph - N/A   Scattered Clouds
7:53 PM 75.9 °F - 54.0 °F 46% 30.06 in 10.0 mi Calm Calm - N/A   Mostly Cloudy
8:53 PM 71.1 °F - 54.0 °F 55% 30.07 in 10.0 mi Calm Calm - N/A   Partly Cloudy
9:53 PM 64.0 °F - 54.0 °F 70% 30.07 in 10.0 mi East 3.5 mph - N/A   Partly Cloudy
10:53 PM 66.9 °F - 55.9 °F 68% 30.07 in 10.0 mi Calm Calm - N/A   Overcast
11:53 PM 63.0 °F - 55.0 °F 75% 30.06 in 10.0 mi Calm Calm - N/A   Clear